RH
54 37 26 27 15 14 20 20 16 21 24 20 22 24 34 35 30 55 39 45 43 47 46 51 83 79 81 83 83 82 82 81 83 84 82 79 75 76 77 76 75 74 72 72 72 72 72 73 74
28 28 27 23 15 17 17 15 20 22 24 22 21 24 32 42 33 39 44 43 43 40 43 50 87 82 80 82 82 83 81 80 82 83 81 78 74 76 75 73 74 75 73 72 72 73 71 69 70
37 27 30 10 11 17 19 18 21 20 16 21 22 22 31 40 34 38 40 44 45 51 54 64 84 84 79 80 80 83 82 78 79 80 78 75 74 77 74 73 73 73 72 72 71 71 69 67 66
26 23 12 13 15 14 18 18 16 16 16 18 24 35 31 29 32 34 40 45 48 50 50 71 82 81 81 80 81 80 80 78 78 77 75 75 74 72 71 72 71 72 71 71 70 69 68 67 68
25 20 13 16 16 14 14 13 12 16 17 17 23 37 40 32 30 34 40 42 51 49 49 54 84 82 82 80 79 78 79 77 78 74 74 72 72 71 70 70 69 69 68 68 67 67 67 66 67
39 9 15 18 18 16 14 11 14 17 17 20 28 37 41 32 32 34 33 37 34 45 46 52 78 82 83 78 79 78 77 76 76 74 72 72 72 71 70 68 68 67 65 63 65 66 66 68 69
60 15 10 12 17 18 16 12 14 17 20 23 24 43 39 33 30 27 30 38 35 42 49 51 52 65 79 79 79 80 78 76 74 73 72 72 73 71 70 68 67 65 64 63 64 65 66 68 69
12 8 10 13 14 18 15 13 13 17 21 19 23 38 44 34 29 26 29 32 37 43 49 63 54 51 56 59 76 78 78 75 73 72 72 72 72 71 70 71 71 66 64 66 67 68 68 67 68
9 13 8 11 12 15 13 17 17 19 22 22 23 25 30 30 28 28 32 41 43 41 47 46 50 51 69 53 61 75 77 74 72 69 70 66 43 63 52 62 62 67 66 66 67 69 70 72 71
9 8 9 8 10 12 14 16 19 24 30 28 27 26 29 31 33 34 33 39 38 40 40 47 46 57 60 41 62 55 51 48 50 49 64 49 56 63 49 58 65 68 69 70 69 71 71 67 47
7 7 9 10 10 11 13 13 13 15 28 28 36 35 33 34 35 35 35 36 39 40 35 33 50 45 45 66 46 43 42 50 44 55 63 59 69 67 68 68 55 66 70 41 58 68 49 50 40
10 9 10 10 10 11 12 14 20 26 27 27 29 31 32 35 34 33 34 37 40 42 38 38 44 52 49 55 39 57 58 38 46 59 59 58 49 71 64 49 70 51 40 47 52 55 45 45 43
10 11 11 10 10 10 12 19 28 32 28 27 29 31 32 31 32 32 32 34 39 43 41 42 48 58 58 58 42 42 56 38 48 41 45 45 67 71 57 54 48 51 44 58 62 69 71 57 45
10 11 11 10 10 12 16 19 27 33 28 31 33 33 31 30 31 33 34 35 38 40 40 40 46 62 67 66 65 59 43 49 49 51 65 64 46 73 62 67 51 63 54 49 53 62 55 55 47
10 12 12 12 11 11 12 19 30 32 30 33 33 32 33 34 35 36 34 36 37 37 41 50 60 63 63 68 70 72 45 38 49 64 56 46 53 60 81 74 57 53 55 65 60 61 60 56 44
10 11 14 12 12 16 52 30 28 26 29 33 33 33 35 36 34 36 36 44 41 47 55 51 46 48 62 67 64 57 49 47 59 36 38 44 53 67 80 62 56 62 66 53 55 54 53 50 52
10 12 14 14 11 23 45 25 25 20 23 29 30 31 32 33 33 34 36 48 39 44 48 52 48 44 55 63 60 57 59 46 44 66 54 54 62 61 70 60 58 67 59 54 56 59 63 59 56
12 12 11 14 12 12 23 22 23 20 18 25 26 28 29 30 31 32 33 34 36 39 45 48 47 52 54 70 66 62 78 58 50 49 50 65 72 64 80 80 66 70 77 70 61 68 62 67 67
8 9 10 10 10 12 14 19 22 21 19 20 22 27 26 26 26 30 32 34 36 38 46 51 57 67 64 73 75 81 65 70 59 82 63 64 68 67 73 74 68 77 69 67 71 65 73 68 70
6 7 9 9 10 12 14 19 18 20 20 19 20 23 23 24 26 31 34 35 36 40 45 52 55 67 64 58 73 74 62 45 41 46 55 56 52 66 58 63 55 59 47 66 66 74 78 71 57
7 7 7 9 10 10 18 18 22 18 18 19 17 19 20 23 23 28 32 33 32 40 47 51 57 59 65 66 62 58 53 54 40 37 39 43 49 48 56 59 60 64 61 47 63 74 81 87 76
8 6 6 7 12 15 11 16 26 23 20 18 19 18 18 20 20 21 24 29 29 35 41 52 57 62 57 54 49 59 48 39 41 40 38 48 49 50 54 57 58 64 58 66 70 65 76 91 87
9 6 7 7 9 12 16 15 26 25 27 22 17 18 19 20 20 20 20 26 27 34 39 48 58 56 53 51 52 40 44 33 32 36 50 61 61 52 49 55 61 70 56 70 70 76 82 86 95
8 9 10 10 10 15 15 22 14 28 28 23 20 16 18 19 20 21 21 25 29 34 40 48 55 59 54 48 47 49 50 50 43 46 47 39 37 38 48 52 61 64 63 62 63 69 75 82 88
8 9 14 15 15 16 11 11 15 10 12 12 16 19 17 18 20 23 25 29 37 40 43 42 55 61 55 46 41 41 47 53 57 55 42 55 38 38 48 59 60 55 62 62 66 69 69 68 70
9 8 11 22 14 11 12 15 11 7 10 13 14 14 18 21 21 23 27 33 40 40 43 41 55 60 53 45 51 53 54 40 40 43 48 43 42 40 53 56 56 56 57 58 63 55 52 68 70
9 10 6 8 9 11 10 12 9 13 12 14 13 15 19 21 24 23 25 33 38 41 43 43 54 58 51 44 57 57 56 57 54 58 58 43 53 42 46 51 56 56 55 57 64 50 59 62 78
8 7 9 9 18 19 12 12 11 16 13 11 13 15 18 20 25 24 25 34 36 37 37 39 46 53 49 45 47 41 43 50 54 55 58 59 57 56 55 55 53 54 56 61 64 58 58 64 54
8 10 10 8 13 15 14 13 11 12 12 12 12 13 17 20 26 24 26 31 35 35 34 34 40 46 47 46 46 46 46 45 49 51 51 54 56 58 58 57 57 56 57 57 63 70 62 64 71
6 9 10 13 20 13 13 13 8 9 9 11 12 14 16 22 27 26 26 30 34 34 32 31 32 36 39 39 44 46 49 50 49 51 50 52 55 56 57 57 58 56 55 61 59 61 58 65 72
Wind_Speed
10 12 8 7 6 11 17 14 16 15 17 12 19 16 18 18 10 13 18 12 13 10 13 12 8 13 15 13 14 15 16 16 15 14 14 13 13 13 11 12 11 10 9 9 9 7 7 7 7
12 7 9 10 12 15 17 19 18 16 14 11 7 21 21 23 22 22 15 17 13 13 12 13 9 11 13 13 12 13 15 15 14 13 13 12 12 11 12 11 11 9 10 10 8 7 6 5 4
14 7 9 11 15 16 18 18 15 11 9 13 18 16 12 16 15 15 20 17 13 10 12 13 11 12 13 13 13 12 14 13 13 12 12 12 10 10 11 10 10 9 9 8 8 6 5 3 2
7 6 7 16 21 20 17 12 14 15 16 18 18 16 21 13 17 20 22 15 14 11 11 12 12 13 13 13 13 13 13 13 12 11 11 10 9 10 9 9 8 8 8 7 6 5 5 3 3
10 10 11 17 19 18 13 9 14 15 12 16 22 22 16 13 20 20 17 17 16 14 14 13 11 13 13 14 13 13 13 12 11 11 10 9 9 8 8 7 6 6 6 6 5 4 4 3 3
15 5 13 14 18 16 13 13 15 14 13 20 22 18 15 16 17 19 16 14 16 15 14 14 11 11 13 14 13 13 12 12 10 10 9 8 8 7 6 5 4 4 4 3 4 3 3 3 4
21 12 15 16 15 16 9 14 15 15 19 19 17 17 12 17 16 14 20 12 14 14 14 12 12 11 10 11 13 14 13 12 10 9 8 7 6 6 5 3 3 2 2 3 3 3 2 3 4
14 7 3 14 15 17 9 13 16 15 17 12 19 11 17 18 16 14 19 7 16 14 12 7 10 11 11 10 10 13 12 11 10 8 7 5 5 6 7 6 7 1 2 5 5 5 4 5 7
10 12 9 17 15 17 12 14 12 15 14 7 2 20 21 21 16 14 14 13 7 13 9 10 6 8 4 11 10 9 9 9 8 7 6 7 9 9 10 1 4 1 5 6 7 6 5 7 11
13 1 16 12 12 14 10 16 14 14 12 11 16 24 22 21 16 15 12 16 12 11 13 11 13 12 9 9 10 9 9 9 8 7 7 6 3 1 7 5 6 8 9 9 11 10 12 7 5
8 16 9 4 14 14 13 10 6 11 21 15 19 22 22 20 16 14 12 11 11 10 8 9 8 8 9 4 7 5 6 5 8 8 6 5 3 2 4 3 3 6 10 7 9 8 10 6 5
7 5 13 11 6 13 17 14 11 16 17 19 21 21 19 19 17 15 13 12 10 10 8 8 6 7 7 5 6 5 3 4 4 6 8 5 4 1 3 5 4 4 4 4 4 5 4 7 7
13 8 12 8 12 12 16 16 15 16 18 21 20 18 17 16 15 14 12 13 12 11 9 8 8 7 5 4 4 2 3 5 4 5 5 5 3 2 3 3 5 6 5 1 3 5 3 6 9
14 10 12 11 13 12 16 16 14 17 19 19 17 17 15 13 13 11 12 12 12 12 12 11 9 8 6 4 5 4 5 1 4 1 1 4 6 1 6 3 6 4 5 5 5 6 7 6 8
14 12 11 10 12 14 14 15 15 17 16 17 16 15 14 13 11 10 11 11 12 11 9 7 5 8 8 8 6 5 7 8 3 5 7 6 7 8 5 6 7 7 6 8 8 9 7 8 9
17 15 16 14 11 20 33 11 15 17 17 16 15 13 12 12 13 12 11 7 9 3 8 7 7 14 11 9 7 7 8 7 4 7 7 7 9 7 3 7 8 6 8 9 7 7 9 9 8
17 12 14 12 12 22 20 13 15 15 16 16 15 14 13 12 13 12 14 12 9 10 8 8 9 8 11 10 8 10 8 8 6 3 4 3 4 7 8 8 9 9 9 9 9 8 9 10 9
16 18 16 14 13 7 17 13 17 14 16 16 15 15 13 14 12 12 13 12 11 12 9 7 6 5 5 1 3 4 4 6 7 7 5 8 6 10 8 7 8 7 7 9 8 9 9 9 9
13 14 14 8 14 12 6 16 16 14 14 15 16 16 14 13 15 13 11 9 10 8 9 8 6 5 5 5 4 4 5 5 6 4 9 7 7 8 7 6 7 8 9 10 9 11 10 10 9
9 13 11 11 9 8 5 14 15 16 14 15 15 16 17 16 17 16 13 12 11 9 9 9 7 7 6 5 2 3 5 4 4 6 5 7 5 2 6 7 8 8 9 8 8 10 9 10 10
15 17 14 8 11 13 13 13 16 16 16 14 16 16 17 18 19 17 15 13 12 11 10 9 8 6 4 4 6 6 6 8 8 2 3 3 6 6 6 7 8 8 8 10 8 8 10 9 9
18 15 11 10 9 14 17 12 18 17 17 19 18 19 17 17 17 18 18 16 13 11 10 9 8 6 4 2 0 3 6 6 6 5 5 7 8 7 8 8 8 6 9 9 7 8 9 7 9
5 13 9 15 13 16 14 14 17 8 18 21 20 19 19 18 18 18 18 18 15 13 11 10 8 6 5 3 3 3 3 4 3 3 4 6 7 5 6 5 7 6 8 7 8 8 8 7 7
12 9 8 11 11 14 15 10 12 19 27 24 22 22 21 20 19 17 17 18 15 13 12 11 10 8 6 4 4 2 3 3 5 5 6 6 5 4 2 4 6 7 8 8 8 8 10 9 9
13 12 9 10 12 13 6 12 6 7 9 7 21 23 23 21 20 18 18 18 16 16 14 12 11 9 7 6 3 2 2 4 5 5 6 5 5 4 3 4 5 6 7 9 8 8 9 10 9
15 14 12 8 10 11 9 8 12 9 9 7 9 22 20 21 19 20 19 18 17 16 15 13 12 10 8 6 4 1 3 5 4 3 5 6 6 6 5 5 6 8 8 8 8 8 8 9 9
16 17 17 13 5 10 4 12 10 10 7 4 8 11 21 22 19 20 20 19 18 17 16 14 13 10 9 7 5 3 4 4 6 5 5 7 3 6 4 6 8 8 8 7 8 8 6 7 8
9 10 11 7 8 10 9 5 5 10 9 9 9 11 13 21 21 19 19 19 18 17 15 14 13 11 9 7 5 4 3 4 4 5 6 6 7 7 8 8 9 9 9 8 7 8 7 9 8
13 11 13 13 7 7 6 4 15 6 7 4 6 6 11 17 19 19 19 20 18 17 16 15 13 12 9 7 5 3 4 5 4 6 6 6 7 7 9 9 10 10 10 10 7 9 11 10 11
20 22 17 11 11 8 10 3 6 6 6 4 2 4 9 13 18 20 20 20 19 18 17 16 14 12 10 8 5 5 5 5 5 6 7 7 8 8 9 10 11 11 10 11 9 11 10 10 10
Wind_Direction
242 232 273 263 105 97 95 108 122 102 72 61 43 63 65 32 49 92 130 128 112 123 116 123 114 123 125 111 113 112 111 109 112 110 107 103 102 103 106 110 111 106 102 92 92 93 94 103 112
279 283 244 266 98 89 75 74 75 74 89 94 121 81 67 71 88 108 115 116 129 127 132 123 115 121 124 117 119 118 114 110 110 107 105 107 110 115 116 111 110 106 99 94 87 85 93 102 111
263 271 269 77 70 74 83 88 101 104 108 89 76 61 74 103 105 107 124 126 119 100 103 107 124 132 137 137 130 122 116 113 111 115 117 118 119 119 108 107 100 96 91 89 85 81 77 74 70
272 200 317 80 85 85 84 86 99 97 74 91 97 87 91 74 110 116 109 121 124 126 112 118 127 126 130 135 132 125 118 117 116 118 117 118 118 106 103 97 92 92 87 81 78 72 71 54 32
238 265 96 97 92 92 95 91 84 100 106 96 104 109 97 93 112 115 133 132 134 126 124 119 124 135 137 136 134 133 131 129 122 126 128 134 124 116 105 97 95 87 80 70 61 52 34 14 359
316 259 125 118 107 105 98 98 96 91 93 97 115 106 100 122 135 136 140 133 146 128 123 131 122 130 134 138 142 141 142 138 136 138 140 140 138 134 132 129 111 90 75 51 31 13 359 341 322
213 255 105 109 117 110 101 124 107 113 119 124 133 116 126 147 135 148 125 172 124 114 105 132 131 130 134 143 149 147 146 148 151 151 153 157 159 159 159 157 150 111 358 330 328 324 305 293 296
293 94 200 109 118 107 106 115 129 115 105 116 126 144 158 147 152 152 124 130 105 125 125 113 140 148 154 151 149 147 151 154 161 164 165 168 186 190 198 208 192 210 302 312 311 315 313 292 269
267 272 91 66 108 115 135 101 81 112 137 152 148 133 147 146 157 152 142 133 142 134 140 147 157 147 131 139 136 147 151 161 168 179 182 209 246 176 185 64 95 284 292 287 287 283 274 251 257
242 342 55 37 120 126 128 119 133 130 126 135 95 110 143 152 161 157 170 146 168 146 167 154 167 169 201 156 143 178 167 191 196 204 199 223 283 198 315 263 190 217 230 250 247 249 244 245 284
346 77 113 108 76 112 128 121 182 171 128 139 134 141 150 156 162 165 171 158 166 162 189 157 142 148 194 81 160 181 186 187 184 214 232 240 44 269 325 358 234 237 185 265 191 212 231 193 333
104 64 86 113 175 116 88 77 52 48 72 123 135 145 153 164 168 168 173 170 168 177 194 157 155 158 204 172 204 216 161 190 209 208 170 247 242 262 331 346 325 272 271 346 334 300 327 285 260
115 101 119 152 91 92 82 82 90 91 106 122 131 144 157 169 169 169 175 170 175 187 192 178 170 145 245 218 212 242 330 199 228 203 204 228 216 186 273 295 277 313 296 142 321 307 309 286 288
113 131 123 122 114 121 133 128 114 113 123 127 141 148 157 160 168 165 183 179 183 190 188 181 183 182 197 204 258 311 251 320 246 258 332 242 256 243 247 217 267 242 314 317 293 299 305 286 282
137 150 134 150 145 108 114 101 111 129 137 141 142 151 146 152 150 168 181 186 191 190 189 180 178 156 193 208 214 232 236 225 232 201 219 251 258 230 279 313 300 293 309 280 263 256 252 277 258
183 166 176 167 157 89 46 122 136 155 148 145 152 138 143 144 164 157 160 153 176 187 169 190 217 177 183 205 220 215 244 260 230 239 232 229 232 250 255 259 260 275 289 270 254 267 270 265 274
209 203 158 169 203 119 138 166 155 163 154 150 158 151 158 158 151 154 145 152 198 159 185 187 195 231 171 189 217 219 225 234 272 298 296 271 278 252 247 249 253 241 256 261 272 297 294 279 259
202 231 165 179 172 213 154 144 158 172 154 160 168 161 168 163 166 158 154 159 170 167 169 193 180 188 206 28 225 241 260 269 269 257 264 292 286 275 271 276 273 257 274 281 281 273 253 260 274
185 236 214 168 158 189 210 138 155 178 168 169 167 171 175 174 152 157 159 167 164 173 161 168 157 172 189 203 215 223 234 233 252 250 263 262 265 273 275 279 274 246 253 262 267 259 256 269 255
264 214 233 160 146 242 171 152 165 182 187 174 170 179 171 171 162 160 171 175 176 171 164 166 173 176 205 184 226 248 246 252 258 221 215 237 259 349 272 285 297 298 295 281 295 291 287 276 272
231 251 219 182 179 238 155 222 164 189 190 185 180 184 176 174 170 173 181 183 177 161 168 163 176 174 199 229 201 201 223 217 228 249 323 60 329 300 276 277 284 293 281 273 271 291 291 281 281
222 228 225 211 206 215 214 246 170 185 205 192 196 185 188 182 184 180 179 183 183 159 163 147 167 154 160 203 66 53 300 294 5 300 349 334 294 313 301 286 283 307 297 305 294 286 294 294 277
254 175 218 252 212 268 164 245 165 216 204 204 205 200 193 188 191 186 183 173 176 156 165 160 142 155 129 142 318 290 286 327 327 330 316 280 249 263 290 308 325 298 301 331 299 294 288 286 282
129 191 201 234 248 229 217 238 181 193 207 199 198 208 200 192 191 191 182 164 163 165 162 152 158 157 159 187 188 263 291 312 309 346 307 281 317 299 336 343 314 309 300 298 305 296 281 288 282
202 193 206 215 219 241 206 232 241 330 168 238 191 199 199 201 194 194 183 163 162 175 167 163 164 166 175 188 192 266 291 295 276 268 297 343 288 313 353 323 285 304 310 295 298 298 300 282 290
220 210 236 179 234 225 119 236 260 250 354 158 270 189 200 194 200 194 189 166 175 177 172 167 169 175 183 187 187 195 281 287 288 254 344 302 333 319 360 293 306 303 305 303 297 284 303 314 310
189 233 242 287 194 273 226 198 191 159 184 228 223 236 190 191 199 199 188 170 182 184 180 170 174 176 185 185 187 214 244 268 317 319 297 278 322 289 267 318 298 293 287 299 307 289 301 309 317
278 188 231 240 269 243 241 213 269 147 207 203 207 225 239 189 186 203 194 176 185 186 181 178 174 177 185 199 203 236 238 231 243 266 269 289 291 288 297 296 295 298 286 279 278 300 329 316 329
208 236 236 262 251 287 260 231 113 127 142 195 211 214 217 212 180 203 194 183 186 188 182 184 178 177 187 198 221 245 253 229 222 253 266 274 281 284 282 291 300 298 285 286 290 289 283 328 325
229 204 228 238 223 256 293 310 92 127 138 144 309 192 211 205 188 204 193 186 186 192 187 190 185 182 191 204 197 222 225 232 252 258 276 288 287 288 284 287 290 290 297 299 298 286 304 305 308